Hourly Weather Qala i Naw

Today, 8 August, Saturday

Time Temperature Precipitation Wind Pressure Humidity
00:00 +22°C° 0 mm 3 mps 678 mmHg 33%
01:00 +23°C° 0 mm 2 mps 678 mmHg 35%
02:00 +21°C° 0 mm 2 mps 678 mmHg 38%
03:00 +20°C° 0 mm 2 mps 677 mmHg 42%
04:00 +19°C° 0 mm 2 mps 677 mmHg 46%
05:00 +20°C° 0 mm 2 mps 678 mmHg 43%
06:00 +23°C° 0 mm 2 mps 678 mmHg 40%
07:00 +24°C° 0 mm 2 mps 678 mmHg 37%
08:00 +26°C° 0 mm 3 mps 678 mmHg 33%
09:00 +28°C° 0 mm 4 mps 679 mmHg 30%
10:00 +29°C° 0 mm 5 mps 679 mmHg 27%
11:00 +32°C° 0 mm 5 mps 678 mmHg 25%
12:00 +33°C° 0 mm 5 mps 678 mmHg 23%
13:00 +35°C° 0 mm 6 mps 678 mmHg 21%
14:00 +35°C° 0 mm 6 mps 678 mmHg 21%
15:00 +35°C° 0 mm 7 mps 677 mmHg 20%
16:00 +35°C° 0 mm 8 mps 677 mmHg 20%
17:00 +33°C° 0 mm 7 mps 677 mmHg 23%
18:00 +32°C° 0 mm 6 mps 677 mmHg 25%
19:00 +29°C° 0 mm 5 mps 677 mmHg 28%
20:00 +27°C° 0 mm 4 mps 677 mmHg 31%
21:00 +26°C° 0 mm 3 mps 677 mmHg 33%
22:00 +24°C° 0 mm 3 mps 677 mmHg 36%
23:00 +23°C° 0 mm 2 mps 677 mmHg 39%

Tomorrow, 9 August, Sunday

Time Temperature Precipitation Wind Pressure Humidity
00:00 +21°C° 0 mm 2 mps 677 mmHg 41%
01:00 +21°C° 0 mm 1 mps 677 mmHg 44%
02:00 +20°C° 0 mm 1 mps 677 mmHg 47%
03:00 +19°C° 0 mm 1 mps 676 mmHg 50%
04:00 +16°C° 0 mm 0 mps 676 mmHg 53%
05:00 +18°C° 0 mm 0 mps 677 mmHg 46%
06:00 +21°C° 0 mm 0 mps 677 mmHg 40%
07:00 +23°C° 0 mm 0 mps 678 mmHg 34%
08:00 +27°C° 0 mm 1 mps 678 mmHg 31%
09:00 +28°C° 0 mm 2 mps 678 mmHg 27%
10:00 +30°C° 0 mm 3 mps 678 mmHg 24%
11:00 +33°C° 0 mm 4 mps 678 mmHg 21%
12:00 +34°C° 0 mm 5 mps 678 mmHg 19%
13:00 +36°C° 0 mm 6 mps 678 mmHg 16%
14:00 +36°C° 0 mm 6 mps 677 mmHg 15%
15:00 +36°C° 0 mm 7 mps 677 mmHg 14%
16:00 +36°C° 0 mm 7 mps 677 mmHg 14%
17:00 +34°C° 0 mm 6 mps 677 mmHg 17%
18:00 +32°C° 0 mm 5 mps 677 mmHg 19%
19:00 +28°C° 0 mm 4 mps 677 mmHg 22%
20:00 +27°C° 0 mm 3 mps 676 mmHg 25%
21:00 +25°C° 0 mm 3 mps 676 mmHg 28%
22:00 +23°C° 0 mm 2 mps 676 mmHg 31%
23:00 +21°C° 0 mm 2 mps 676 mmHg 33%

Day after tomorrow, 10 August, Monday

Time Temperature Precipitation Wind Pressure Humidity
00:00 +21°C° 0 mm 1 mps 676 mmHg 36%
01:00 +20°C° 0 mm 1 mps 676 mmHg 38%
02:00 +20°C° 0 mm 1 mps 675 mmHg 40%
03:00 +19°C° 0 mm 1 mps 675 mmHg 42%
04:00 +19°C° 0 mm 1 mps 675 mmHg 44%
05:00 +21°C° 0 mm 1 mps 676 mmHg 38%
06:00 +24°C° 0 mm 1 mps 677 mmHg 31%
07:00 +26°C° 0 mm 1 mps 677 mmHg 25%
08:00 +28°C° 0 mm 2 mps 677 mmHg 22%
09:00 +30°C° 0 mm 3 mps 678 mmHg 19%
10:00 +33°C° 0 mm 4 mps 678 mmHg 17%
11:00 +34°C° 0 mm 5 mps 678 mmHg 15%
12:00 +36°C° 0 mm 6 mps 678 mmHg 13%
13:00 +38°C° 0 mm 8 mps 678 mmHg 11%
14:00 +38°C° 0 mm 8 mps 677 mmHg 11%
15:00 +38°C° 0 mm 8 mps 677 mmHg 11%
16:00 +38°C° 0 mm 9 mps 677 mmHg 11%
17:00 +35°C° 0 mm 8 mps 677 mmHg 13%
18:00 +33°C° 0 mm 6 mps 677 mmHg 15%
19:00 +30°C° 0 mm 5 mps 677 mmHg 17%
20:00 +28°C° 0 mm 4 mps 677 mmHg 20%
21:00 +26°C° 0 mm 3 mps 677 mmHg 23%
22:00 +24°C° 0 mm 2 mps 677 mmHg 26%
23:00 +23°C° 0 mm 1 mps 677 mmHg 28%

11 August, Tuesday

Time Temperature Precipitation Wind Pressure Humidity
00:00 +22°C° 0 mm 1 mps 676 mmHg 29%
01:00 +21°C° 0 mm 1 mps 676 mmHg 31%
02:00 +21°C° 0 mm 1 mps 676 mmHg 32%
03:00 +20°C° 0 mm 1 mps 676 mmHg 34%
04:00 +20°C° 0 mm 1 mps 676 mmHg 35%
05:00 +22°C° 0 mm 1 mps 677 mmHg 30%
06:00 +25°C° 0 mm 1 mps 677 mmHg 25%
07:00 +27°C° 0 mm 1 mps 678 mmHg 20%
08:00 +29°C° 0 mm 3 mps 678 mmHg 18%
09:00 +32°C° 0 mm 4 mps 679 mmHg 16%
10:00 +34°C° 0 mm 5 mps 679 mmHg 14%
11:00 +36°C° 0 mm 7 mps 679 mmHg 13%
12:00 +38°C° 0 mm 8 mps 679 mmHg 12%
13:00 +39°C° 0 mm 10 mps 678 mmHg 11%
14:00 +39°C° 0 mm 10 mps 678 mmHg 11%
15:00 +39°C° 0 mm 11 mps 678 mmHg 12%
16:00 +38°C° 0 mm 11 mps 677 mmHg 13%
17:00 +36°C° 0 mm 10 mps 677 mmHg 15%
18:00 +33°C° 0 mm 8 mps 678 mmHg 18%
19:00 +29°C° 0 mm 7 mps 678 mmHg 21%
20:00 +27°C° 0 mm 5 mps 677 mmHg 22%
21:00 +25°C° 0 mm 3 mps 677 mmHg 23%
22:00 +23°C° 0 mm 2 mps 677 mmHg 25%
23:00 +22°C° 0 mm 1 mps 677 mmHg 27%

12 August, Wednesday

Time Temperature Precipitation Wind Pressure Humidity
00:00 +21°C° 0 mm 1 mps 677 mmHg 29%
01:00 +20°C° 0 mm 1 mps 676 mmHg 31%
02:00 +19°C° 0 mm 1 mps 676 mmHg 34%
03:00 +19°C° 0 mm 1 mps 676 mmHg 36%
04:00 +16°C° 0 mm 0 mps 676 mmHg 38%
05:00 +21°C° 0 mm 1 mps 676 mmHg 32%
06:00 +24°C° 0 mm 1 mps 677 mmHg 27%
07:00 +26°C° 0 mm 1 mps 678 mmHg 21%
08:00 +28°C° 0 mm 2 mps 678 mmHg 18%
09:00 +30°C° 0 mm 3 mps 678 mmHg 16%
10:00 +33°C° 0 mm 4 mps 678 mmHg 14%
11:00 +35°C° 0 mm 5 mps 678 mmHg 12%
12:00 +38°C° 0 mm 6 mps 678 mmHg 10%
13:00 +39°C° 0 mm 7 mps 678 mmHg 9%
14:00 +39°C° 0 mm 8 mps 678 mmHg 8%
15:00 +39°C° 0 mm 9 mps 677 mmHg 8%
16:00 +40°C° 0 mm 10 mps 677 mmHg 8%
17:00 +35°C° 0 mm 8 mps 677 mmHg 10%
18:00 +32°C° 0 mm 6 mps 677 mmHg 12%
19:00 +28°C° 0 mm 5 mps 677 mmHg 15%
20:00 +26°C° 0 mm 3 mps 676 mmHg 17%
21:00 +24°C° 0 mm 2 mps 676 mmHg 19%
22:00 +23°C° 0 mm 1 mps 676 mmHg 22%
23:00 +22°C° 0 mm 1 mps 676 mmHg 22%

13 August, Thursday

Time Temperature Precipitation Wind Pressure Humidity
00:00 +21°C° 0 mm 1 mps 676 mmHg 23%
01:00 +21°C° 0 mm 1 mps 676 mmHg 23%
02:00 +21°C° 0 mm 1 mps 676 mmHg 24%
03:00 +20°C° 0 mm 1 mps 675 mmHg 24%
04:00 +20°C° 0 mm 1 mps 675 mmHg 25%
05:00 +22°C° 0 mm 1 mps 676 mmHg 21%
06:00 +25°C° 0 mm 1 mps 677 mmHg 18%
07:00 +27°C° 0 mm 1 mps 678 mmHg 14%
08:00 +30°C° 0 mm 1 mps 678 mmHg 13%
09:00 +32°C° 0 mm 2 mps 678 mmHg 12%
10:00 +35°C° 0 mm 3 mps 678 mmHg 11%
11:00 +36°C° 0 mm 4 mps 678 mmHg 10%
12:00 +39°C° 0 mm 5 mps 678 mmHg 10%
13:00 +40°C° 0 mm 6 mps 678 mmHg 10%
14:00 +40°C° 0 mm 7 mps 677 mmHg 10%
15:00 +40°C° 0 mm 8 mps 677 mmHg 10%
16:00 +42°C° 0 mm 9 mps 677 mmHg 11%
17:00 +38°C° 0 mm 8 mps 677 mmHg 13%
18:00 +34°C° 0 mm 6 mps 676 mmHg 16%
19:00 +30°C° 0 mm 5 mps 676 mmHg 19%
20:00 +29°C° 0 mm 3 mps 676 mmHg 21%
21:00 +27°C° 0 mm 2 mps 676 mmHg 24%
22:00 +25°C° 0 mm 1 mps 676 mmHg 26%
23:00 +24°C° 0 mm 1 mps 676 mmHg 28%
Show more